Theta_e
309 310 310 309 309 309 309 311 314 316 316 318 317 317 318 318 318 316 314 314 313 315 316 316 319 319 319 319 321 319 319 325 327 324 325 325 326 325 328 328 329 332 331 331 330 331 327 326 332 335 333 332 332 334
309 309 308 309 308 309 314 315 315 315 318 317 317 317 317 316 315 314 313 313 314 314 315 316 315 315 316 318 318 319 321 319 319 325 323 322 324 325 329 329 323 329 328 330 330 328 328 330 332 331 330 331 333 334
308 307 307 308 308 309 312 315 315 315 316 316 316 316 315 314 314 314 313 313 312 311 313 313 316 315 315 316 316 317 318 317 319 317 319 322 329 324 329 329 329 324 322 328 328 327 325 325 330 327 329 331 331 334
308 308 308 307 309 311 312 314 315 315 315 315 315 314 314 314 313 313 311 310 310 310 312 313 313 314 314 315 316 317 317 317 318 317 317 323 325 319 326 328 329 326 325 329 329 327 327 326 327 327 330 329 331 330
306 306 306 307 310 311 312 313 314 314 313 313 313 313 313 312 312 311 311 311 310 310 312 312 314 316 315 316 316 316 315 316 317 318 318 325 320 320 319 324 328 324 330 329 327 331 332 330 326 329 329 331 329 330
306 306 306 307 310 312 312 312 312 313 313 313 314 313 313 312 312 311 310 313 314 314 311 316 314 314 317 320 316 316 316 317 317 318 318 320 320 320 327 329 326 325 324 325 330 326 327 327 329 330 331 329 329 330
304 305 304 308 310 310 311 311 311 312 312 311 311 313 312 311 311 311 310 312 313 313 313 315 316 315 318 319 316 316 317 318 318 318 322 322 324 320 324 329 328 324 324 324 324 326 328 327 329 330 330 328 330 329
304 305 304 306 309 310 310 310 311 311 311 311 310 310 311 310 310 310 312 312 310 311 314 316 316 318 319 320 317 318 317 318 318 321 321 323 322 322 329 328 322 323 323 322 323 326 327 328 328 329 328 330 330 333
303 304 304 305 307 309 309 310 310 310 310 310 310 310 309 310 311 314 315 315 314 312 314 317 319 317 314 316 319 318 319 321 321 325 324 324 326 334 330 327 323 324 324 323 324 326 326 327 327 328 327 327 331 333
304 304 305 307 305 305 306 307 308 308 308 309 309 309 312 315 316 315 314 314 312 312 312 314 315 318 314 317 318 323 319 323 323 324 321 327 328 324 324 323 323 324 325 325 325 326 325 326 327 328 327 325 324 325
305 304 304 304 305 305 305 306 308 308 309 309 310 312 313 314 315 314 315 315 315 315 315 315 315 317 315 317 320 324 328 323 326 326 328 330 330 329 325 325 324 324 325 325 325 324 325 325 325 326 326 325 325 324
305 304 303 303 303 303 303 305 307 307 308 310 310 312 313 314 314 314 317 317 316 318 316 317 318 317 316 318 325 326 328 325 328 324 326 328 328 326 326 326 326 324 324 325 325 325 325 325 325 325 325 325 325 325
304 303 303 302 302 303 303 306 307 306 308 310 311 312 314 314 315 317 319 320 320 319 319 319 320 320 317 317 322 326 327 328 324 328 329 328 323 325 324 325 325 324 325 323 323 324 324 323 323 323 323 323 323 323
303 302 302 302 303 303 305 306 307 307 309 310 312 311 314 316 316 316 318 319 318 318 318 318 319 321 320 322 322 325 323 325 329 330 329 327 327 328 328 327 325 324 324 324 324 323 323 322 323 323 323 323 322 323
302 303 303 303 304 304 305 305 307 307 309 310 312 314 315 314 314 315 317 318 317 318 320 320 321 321 322 323 324 323 324 325 327 329 325 326 327 328 329 327 325 324 324 325 325 324 323 323 324 325 324 323 323 323
303 303 304 304 304 305 305 305 306 307 310 310 310 313 314 316 317 316 316 317 318 318 319 320 322 323 323 323 322 325 325 324 325 327 327 326 327 325 326 327 329 329 327 326 325 325 325 325 325 324 324 324 325 324
304 305 306 306 306 305 305 306 307 308 309 311 312 312 313 314 314 314 316 317 317 317 322 321 322 322 322 322 323 324 326 328 326 326 326 324 323 323 323 323 324 324 324 326 327 327 326 325 324 324 324 324 323 323
306 306 307 306 306 305 306 308 309 310 311 311 312 313 312 314 315 315 316 316 316 316 319 321 320 323 323 323 323 323 323 323 325 324 324 321 321 321 322 323 323 322 322 321 321 321 322 326 327 326 325 325 325 325
307 308 307 307 307 307 307 308 309 311 312 313 313 313 313 314 314 315 315 316 315 315 317 320 322 322 322 321 321 322 322 323 324 323 321 321 323 322 323 324 324 324 324 323 323 322 323 324 325 326 326 325 325 325
306 308 308 307 308 309 310 311 310 310 312 313 313 313 314 315 316 316 316 316 315 316 319 320 320 319 321 321 321 322 322 322 323 322 322 321 320 321 322 322 322 322 322 321 320 320 321 323 325 326 326 327 327 326
308 308 309 308 308 308 309 309 311 313 314 315 315 314 315 315 315 315 315 315 315 316 316 317 317 316 317 317 319 320 319 318 318 320 322 321 322 321 320 320 320 320 322 322 322 322 321 320 319 320 324 325 326 327
308 308 308 308 308 308 308 309 310 311 311 313 313 313 315 315 315 315 315 315 316 316 315 315 315 315 315 315 315 318 320 319 317 316 318 320 321 320 321 321 320 321 321 323 322 321 321 320 319 318 320 323 325 327
307 308 308 308 309 310 310 310 312 313 314 314 314 317 317 316 316 317 317 317 316 317 319 321 321 321 321 318 315 315 318 317 317 317 316 319 319 318 319 320 321 321 322 322 322 322 321 320 319 319 319 322 325 327
308 309 310 311 309 309 310 311 311 312 314 316 317 317 317 318 317 318 318 317 319 320 322 322 322 320 319 318 317 316 315 316 316 316 316 319 318 318 319 320 322 322 321 321 322 321 320 320 320 320 320 321 324 326
309 308 309 308 310 311 313 313 313 314 314 315 316 318 318 317 319 320 320 321 321 321 322 322 322 321 320 319 318 317 317 317 317 318 319 319 319 319 320 321 322 322 322 321 320 320 320 321 320 320 320 320 323 326
307 307 307 310 311 311 312 314 315 316 317 318 319 318 319 321 322 322 320 320 321 321 321 322 322 322 322 322 322 321 321 321 321 321 321 321 320 320 321 322 321 321 320 320 319 321 322 321 322 322 322 323 324 325
307 307 307 308 309 311 313 314 314 316 317 319 319 320 321 321 321 321 321 321 321 321 321 321 322 321 321 320 320 321 322 322 322 322 321 321 321 321 321 320 320 319 317 317 320 320 320 320 320 320 321 321 322 323
308 307 309 309 310 311 314 314 316 318 319 319 319 320 320 320 321 320 320 320 320 321 321 321 320 320 321 321 321 321 321 321 321 322 321 321 320 319 319 319 319 317 317 316 317 317 320 319 318 318 318 319 319 319
308 308 309 309 310 312 314 315 316 318 319 319 319 319 320 320 320 321 321 321 321 321 321 318 318 319 318 317 318 320 321 321 321 322 320 317 317 317 317 315 315 315 315 315 315 315 315 316 316 315 315 315 314 314
308 307 309 311 314 316 316 317 318 318 319 319 319 319 319 319 319 320 319 319 319 320 320 320 319 318 315 316 317 317 318 318 319 320 320 318 317 317 317 316 316 316 316 316 315 315 315 315 313 312 312 312 312 312
308 309 311 313 315 316 316 317 319 319 319 319 318 318 319 320 319 318 318 318 318 319 318 318 319 319 319 317 315 316 317 318 318 318 317 317 318 317 315 314 314 314 314 315 315 316 316 316 317 317 317 317 315 316
310 311 316 316 317 317 317 318 319 318 317 318 319 319 319 319 320 319 319 318 316 316 317 317 317 319 319 318 317 316 314 314 316 317 317 316 314 313 313 313 313 313 314 315 315 315 315 315 315 315 316 316 316 315
312 314 315 316 316 318 318 319 319 318 318 320 319 319 320 319 319 318 318 318 316 315 315 315 315 317 320 320 319 318 317 317 317 316 315 314 313 313 313 313 314 314 314 314 316 315 315 315 315 315 315 315 315 314
Wind_Speed
21 20 19 19 19 19 18 12 8 8 7 7 8 11 10 12 8 7 6 6 10 5 17 18 13 11 9 8 4 6 8 1 3 4 5 3 3 5 4 4 6 8 7 4 3 3 6 8 6 5 2 3 3 2
19 18 18 17 16 15 11 8 8 7 6 8 9 11 11 8 6 7 6 6 9 13 14 22 27 27 23 16 10 4 2 6 4 4 2 2 2 4 5 4 1 4 3 3 7 2 3 12 2 4 3 2 1 5
18 17 16 15 13 10 9 8 8 8 9 9 9 8 6 5 5 7 7 8 11 13 22 11 5 12 13 24 32 9 6 6 4 2 4 3 5 3 4 4 4 4 4 3 4 4 6 8 10 5 2 0 5 9
17 16 16 15 10 6 8 8 8 6 5 5 5 5 5 6 5 6 8 8 8 6 5 10 9 20 17 11 20 27 23 9 8 8 4 3 3 1 4 3 4 1 10 6 2 3 2 7 10 8 5 8 11 10
15 15 14 10 5 8 9 8 6 6 5 5 6 6 6 6 8 10 12 14 14 8 5 15 25 7 6 17 23 24 22 21 15 4 4 3 2 3 2 2 4 9 6 6 3 11 4 6 14 13 11 13 12 18
15 14 11 7 7 8 8 8 7 7 8 8 7 7 8 9 9 7 3 1 1 9 5 4 11 9 12 2 14 27 21 16 11 6 6 7 4 1 3 3 2 17 14 9 4 14 8 13 15 14 13 15 16 19
12 10 8 8 8 10 8 9 10 10 9 8 8 7 8 9 8 5 3 2 2 2 4 6 6 7 9 3 5 9 17 9 8 5 6 4 2 2 2 4 7 20 15 14 10 16 9 14 13 16 13 14 16 17
9 8 8 10 9 10 9 9 9 10 9 7 6 7 8 10 10 7 4 7 12 7 5 3 4 6 12 5 4 9 11 9 11 6 4 4 2 4 5 6 5 14 14 14 14 11 8 13 11 17 14 16 18 18
7 7 6 9 10 5 9 9 8 9 8 7 6 6 7 5 2 2 4 7 8 9 4 3 2 3 11 5 4 6 8 5 7 4 3 4 2 5 3 7 13 18 18 18 16 16 10 11 15 18 17 15 15 17
5 5 5 6 8 11 12 10 7 5 4 3 4 2 1 1 4 5 3 2 4 6 6 4 3 3 6 4 4 3 6 4 5 5 6 3 3 6 7 7 14 17 15 19 22 11 11 11 16 18 19 16 12 14
7 5 6 10 7 8 12 7 4 2 1 1 1 1 2 3 2 2 3 4 5 3 5 6 8 3 4 3 3 3 1 2 5 3 5 5 4 8 10 10 11 12 14 19 15 14 11 10 13 16 19 18 17 15
6 5 5 6 9 9 8 5 5 3 3 2 2 6 3 2 2 2 3 3 4 3 4 4 7 8 3 5 5 0 3 1 1 1 4 3 3 20 24 19 22 11 15 15 16 14 9 11 10 11 15 18 18 18
5 6 8 9 9 9 5 5 5 3 4 3 2 2 2 2 2 4 2 1 2 3 2 2 2 3 4 2 4 3 4 3 5 2 2 1 3 2 16 30 36 26 19 17 14 11 11 13 11 12 11 12 14 17
7 7 5 5 5 4 4 4 4 1 4 2 2 2 3 3 4 3 2 3 4 4 6 10 6 4 5 5 3 3 2 3 2 3 2 2 7 7 3 8 14 18 21 26 23 21 21 15 12 11 11 10 9 12
3 2 3 3 5 5 5 6 6 4 2 2 3 3 5 6 6 6 6 8 9 8 7 3 5 2 1 2 2 2 1 3 2 1 2 2 6 8 9 7 2 6 9 10 16 20 20 16 13 12 13 12 10 11
1 2 2 5 6 6 5 5 6 6 2 3 4 4 5 4 4 2 5 6 3 5 5 3 2 0 2 0 2 4 3 3 1 2 3 3 8 10 12 14 13 12 10 6 6 8 11 13 10 7 6 9 13 14
4 2 1 2 6 8 8 7 5 3 3 3 5 8 10 10 9 11 4 3 4 7 2 1 1 2 1 2 2 2 2 2 3 8 7 4 4 9 11 12 12 12 11 10 8 6 3 4 6 7 8 8 9 11
5 3 2 4 6 10 11 4 3 4 6 7 5 3 6 9 8 9 6 9 8 5 4 1 3 3 1 2 2 3 2 2 5 10 9 4 2 6 7 7 8 8 8 8 7 5 3 3 6 10 11 12 12 12
6 5 4 8 9 4 3 4 4 4 7 5 9 12 11 9 12 13 13 15 12 11 6 3 3 2 3 7 5 6 4 3 4 5 4 2 2 3 4 5 6 6 6 7 6 7 7 6 7 11 13 14 14 14
6 4 3 8 5 1 2 3 4 4 4 3 7 7 7 6 9 11 11 9 6 3 4 3 3 2 2 4 2 5 7 2 2 4 4 4 5 5 5 5 4 4 5 6 6 6 7 7 8 11 12 14 16 18
6 6 4 6 3 3 3 3 4 5 5 5 7 6 5 8 7 6 6 8 6 5 6 10 13 15 11 9 7 2 3 4 4 4 3 4 3 2 2 3 4 4 5 5 7 9 9 11 13 14 15 15 15 17
6 6 4 4 1 2 5 5 5 6 5 5 7 5 5 3 3 3 3 4 4 6 8 14 16 17 20 21 17 13 9 5 4 5 4 3 2 2 4 6 5 4 3 4 7 9 11 12 14 15 15 15 16 15
6 6 2 4 2 3 5 4 4 3 3 2 4 3 2 2 2 2 3 3 5 6 7 13 14 12 14 15 16 18 16 11 11 10 12 9 6 7 7 7 7 6 6 9 9 13 15 16 17 16 15 14 13 13
5 3 2 2 4 4 4 3 4 3 3 2 2 2 3 2 1 2 2 5 6 10 10 10 6 5 5 7 11 16 20 20 18 17 13 11 9 9 9 10 10 9 11 12 13 14 17 18 17 15 13 12 10 7
1 2 2 3 4 3 3 2 2 1 2 2 3 3 2 2 1 2 2 3 8 9 12 9 3 2 1 2 3 4 7 10 11 11 11 9 9 10 10 9 9 8 8 11 13 15 16 15 15 14 13 11 8 7
1 3 4 2 2 3 2 2 3 3 2 2 4 3 2 2 1 2 2 9 8 11 13 11 9 6 4 1 2 0 2 5 8 10 9 9 8 8 6 3 2 4 7 9 10 10 8 8 8 7 6 6 6 8
2 3 3 4 4 5 5 4 5 3 3 2 2 3 2 3 3 3 7 7 9 10 12 14 12 12 12 11 10 8 5 4 4 6 6 6 4 3 3 3 5 7 8 9 9 12 12 8 6 5 5 3 2 3
3 3 3 1 3 3 4 4 2 2 2 4 6 2 2 2 2 3 5 9 11 9 10 13 13 13 11 9 9 9 10 12 13 13 13 13 12 11 10 10 11 10 11 16 16 16 16 16 15 15 13 13 12 11
3 3 2 3 4 3 3 4 2 3 6 4 3 2 3 2 2 4 7 6 4 8 11 12 12 14 15 15 12 8 6 5 3 7 12 14 14 15 16 15 15 15 15 16 17 17 17 17 18 21 22 22 22 20
3 6 3 3 3 3 3 4 5 9 7 4 2 3 3 2 4 8 8 8 8 7 7 7 8 10 14 14 14 15 13 12 10 9 12 12 14 17 16 15 14 14 14 14 16 16 16 16 18 20 23 25 27 27
2 4 3 4 3 3 5 7 7 5 2 0 1 3 3 3 7 10 10 9 8 7 7 8 7 8 10 11 14 16 16 15 16 18 16 17 15 14 14 14 13 12 12 11 11 11 10 10 9 9 8 7 6 4
4 6 3 2 2 3 4 2 3 2 2 3 2 2 2 2 2 4 7 11 13 12 12 12 12 10 11 11 12 15 17 18 17 16 16 14 12 12 11 10 9 9 9 9 9 11 10 10 9 7 5 4 4 5
3 2 3 3 3 2 2 2 2 1 1 2 2 3 4 2 3 4 9 8 9 11 13 13 13 13 10 9 8 8 7 9 10 10 9 8 7 6 6 5 4 4 5 5 6 4 7 8 10 11 11 10 10 10
Wind_Direction
298 299 300 304 310 312 308 303 287 301 281 282 278 270 274 289 280 275 273 270 229 252 272 261 250 250 255 261 266 320 326 80 295 242 209 211 174 179 141 141 177 181 173 181 153 216 282 168 143 224 32 349 310 231
296 296 298 303 308 306 318 324 303 288 299 284 275 270 272 265 263 275 276 266 243 248 262 275 274 264 256 252 258 213 247 323 279 270 242 260 162 162 152 184 114 200 217 190 206 198 107 182 207 217 289 300 287 156
293 294 295 298 299 306 312 304 291 287 285 286 279 271 252 251 259 276 267 266 274 283 297 277 284 305 274 243 235 236 263 225 230 358 303 286 249 153 149 199 140 204 172 203 178 175 217 207 214 232 256 192 138 151
289 291 293 294 286 281 291 303 299 289 274 271 266 271 270 265 267 273 279 278 271 275 280 284 299 284 280 266 231 226 232 251 241 322 284 268 268 211 181 126 191 129 157 164 207 225 196 205 202 194 160 136 144 149
291 295 292 278 270 273 278 295 296 286 273 274 277 275 275 276 276 282 288 282 264 236 285 292 305 336 322 233 222 214 223 231 245 285 252 250 292 204 63 133 177 189 163 185 202 174 147 161 177 173 158 150 143 139
292 294 284 246 249 270 267 282 304 294 277 270 271 268 269 272 274 300 300 30 340 252 273 299 308 315 355 304 211 220 221 211 201 213 249 258 242 325 200 180 220 192 197 175 130 169 129 149 169 173 163 157 146 148
292 284 264 229 256 262 259 281 294 295 288 277 272 261 271 274 278 257 240 244 265 310 264 291 293 307 343 39 110 171 182 183 182 225 237 275 289 106 272 194 188 198 196 180 146 157 146 160 178 175 173 163 162 160
279 290 260 230 261 259 269 286 281 285 294 272 278 263 268 277 286 287 272 262 251 248 262 273 283 304 5 345 187 171 167 178 203 241 234 219 216 79 248 227 191 185 189 192 193 180 186 191 180 172 172 170 165 170
270 294 266 239 250 276 277 274 285 294 293 259 261 269 282 260 225 190 283 270 237 214 270 248 290 317 333 305 279 181 165 176 187 222 237 169 182 214 223 218 198 188 184 189 185 180 174 184 183 184 182 184 182 182
248 282 249 254 264 276 282 296 297 292 265 234 243 237 234 128 301 294 264 239 193 206 233 253 255 251 307 306 279 217 190 188 179 205 169 225 267 271 318 280 226 202 187 175 156 166 175 180 191 194 201 203 198 207
246 253 264 256 269 276 290 263 274 240 123 172 210 246 249 287 257 235 250 214 182 231 220 239 226 231 261 241 287 290 307 210 188 157 198 194 220 234 227 297 314 221 202 180 179 186 213 226 207 211 211 216 219 219
243 257 259 246 257 274 290 235 209 189 186 204 264 276 268 220 210 259 242 183 211 253 211 209 217 213 206 276 248 244 310 285 161 342 194 208 240 231 248 273 283 257 229 209 202 221 240 228 216 234 230 225 229 230
249 262 271 263 256 271 250 208 205 204 219 234 252 257 224 206 244 224 243 173 296 218 264 289 318 213 165 224 273 280 334 29 320 218 205 248 345 239 229 227 241 244 238 227 222 236 260 244 223 229 230 237 243 239
266 275 260 249 232 198 208 200 219 303 174 212 238 270 224 202 243 217 228 274 287 264 295 285 261 227 175 193 208 344 356 263 259 183 107 21 352 352 302 230 231 240 246 240 234 226 237 230 227 231 229 229 235 245
251 257 250 212 196 194 207 193 218 241 189 245 236 239 225 249 275 282 294 293 300 300 303 273 245 197 151 261 217 201 58 312 290 56 15 354 13 35 52 66 118 201 209 215 224 227 226 228 241 248 239 236 241 250
210 261 224 225 212 203 200 191 224 201 244 234 234 268 252 272 275 281 300 288 286 306 313 272 280 222 160 173 257 223 197 224 154 125 125 73 70 60 67 73 75 82 95 121 167 191 207 217 217 218 235 252 251 248
148 123 38 166 181 177 178 163 158 213 246 242 240 245 260 279 270 293 273 290 309 314 281 187 285 160 306 283 253 242 267 67 117 91 110 120 108 80 73 71 67 65 69 75 82 94 136 195 220 240 260 269 264 257
123 121 112 137 141 147 145 156 220 237 246 244 247 259 237 248 266 273 271 275 284 300 294 320 289 218 130 258 231 265 303 72 137 140 154 152 101 81 69 65 62 53 47 45 42 32 13 312 273 263 264 261 263 264
121 120 117 140 137 127 180 216 219 261 248 262 265 273 264 265 272 271 267 269 276 270 279 272 263 214 196 218 272 308 27 36 107 151 158 150 91 87 89 86 72 59 45 33 13 1 353 332 298 282 275 275 273 270
163 153 161 160 158 349 249 221 223 256 265 268 264 262 263 255 269 279 276 268 250 230 223 229 232 230 246 347 192 189 199 242 51 98 152 124 110 106 71 56 49 48 37 21 12 353 337 326 316 309 310 296 284 280
160 160 153 183 227 286 276 272 248 247 282 263 281 284 266 267 265 260 261 250 217 223 240 237 245 255 271 299 305 214 139 95 66 94 113 105 145 164 88 32 7 356 345 338 341 340 337 339 326 311 306 310 300 281
146 149 150 170 250 280 271 246 254 281 268 268 287 257 265 270 264 243 209 202 231 241 245 263 269 269 263 260 258 269 256 259 310 354 338 295 300 332 292 333 343 321 302 310 317 327 331 329 327 323 308 302 302 288
157 154 150 202 247 242 264 267 257 244 263 284 292 261 241 257 263 301 257 252 261 261 292 294 286 281 265 249 241 242 244 249 267 290 304 299 297 318 326 321 323 316 307 311 303 312 316 320 318 311 310 303 303 304
160 188 238 218 210 270 290 252 242 269 275 290 267 279 275 256 227 90 326 282 273 307 321 317 284 292 270 250 245 242 243 253 266 276 267 264 282 298 307 298 296 306 309 304 307 311 310 308 308 307 301 295 290 287
214 226 243 269 227 250 250 243 231 358 267 234 255 252 247 244 237 216 241 306 344 17 14 10 3 343 317 313 276 253 229 227 240 248 255 266 277 289 290 286 289 298 307 310 312 312 310 307 300 291 289 286 263 238
263 223 194 255 207 225 272 297 321 270 260 250 231 235 275 245 279 351 352 349 353 5 9 22 41 61 67 67 53 7 240 247 251 255 255 255 257 257 265 260 275 311 324 332 333 333 332 344 335 310 277 261 224 220
259 267 248 251 271 285 278 270 274 264 259 278 357 318 329 3 36 335 354 17 12 27 42 48 69 80 78 70 69 72 89 102 112 129 137 126 110 104 101 93 86 75 45 33 43 47 41 36 39 44 55 74 132 191
253 260 250 311 292 257 286 307 273 274 310 2 326 358 331 356 352 11 65 35 67 48 45 68 73 69 63 60 63 72 83 90 94 99 102 100 96 90 87 88 88 81 62 61 70 65 68 70 75 77 76 75 79 83
241 235 232 260 251 252 239 235 266 272 342 339 324 335 319 50 81 73 36 38 51 70 87 89 70 58 51 48 55 72 106 115 102 126 110 100 97 96 96 90 86 84 80 77 79 80 81 81 83 83 83 79 77 76
247 201 227 246 238 235 244 226 279 312 340 20 318 316 323 31 18 9 47 75 91 113 107 97 89 76 59 55 54 62 71 78 96 129 123 111 115 112 106 98 90 86 83 81 81 84 89 93 94 94 97 103 104 104
228 194 241 239 264 262 292 311 320 327 336 163 231 286 338 25 74 68 68 70 76 91 110 109 88 103 91 71 68 68 72 84 102 117 117 118 113 107 103 96 87 82 80 76 73 74 79 87 97 109 118 125 120 118
202 208 246 273 283 311 314 314 295 312 359 357 360 24 40 41 67 71 76 69 72 67 74 83 85 96 120 99 91 85 86 91 100 111 117 117 112 112 104 98 94 91 81 71 61 53 62 74 65 64 73 78 68 54
206 232 260 297 282 304 288 255 238 273 3 41 34 51 38 58 64 61 90 96 87 89 87 82 83 82 98 112 99 97 97 92 98 98 97 101 106 107 105 95 81 68 48 32 26 43 72 91 73 74 70 69 67 69